This is the latest recevied weather packets stored in our database for station/object HOWARD. If no packets are shown the sender has not sent any weather packets the latest 10 day(s).
| Time | Temp. | Humidity | Pressure | Rain* | Wind** | Luminosity | Snow |
|---|---|---|---|---|---|---|---|
| 1777450299 | 0° C | 59% | 1013.5 hPa | 0 mm | - | - | - |
| 1777449699 | 0° C | 60% | 1013.6 hPa | 0 mm | - | - | - |
| 1777449099 | 0° C | 63% | 1013.4 hPa | 0 mm | - | - | - |
| 1777448499 | -0.56° C | 64% | 1013.5 hPa | 0 mm | - | - | - |
| 1777447899 | 0° C | 63% | 1013.4 hPa | 0 mm | - | - | - |
| 1777447299 | 0° C | 61% | 1013.3 hPa | 0 mm | - | - | - |
| 1777446699 | -0.56° C | 65% | 1013.3 hPa | 0 mm | - | - | - |
| 1777446099 | -0.56° C | 67% | 1013.3 hPa | 0 mm | - | - | - |
| 1777445499 | -0.56° C | 66% | 1013.4 hPa | 0 mm | - | - | - |
| 1777444899 | 0° C | 63% | 1013.4 hPa | 0 mm | - | - | - |
| 1777444299 | 0° C | 61% | 1013.4 hPa | 0 mm | - | - | - |
| 1777443699 | -0.56° C | 66% | 1013.6 hPa | 0 mm | - | - | - |
| 1777443099 | -1.11° C | - | 1013.7 hPa | 0 mm | - | - | - |
| 1777442499 | -1.11° C | 78% | 1013.7 hPa | 0 mm | - | - | - |
| 1777441899 | -1.11° C | 79% | 1013.1 hPa | 0 mm | - | - | - |
| 1777441299 | -1.11° C | 79% | 1013.3 hPa | 0 mm | - | - | - |
| 1777440731 | -1.11° C | 77% | 1013.4 hPa | 0 mm | - | - | - |
| 1777440699 | -1.11° C | 77% | 1013.4 hPa | 0 mm | - | - | - |
| 1777440099 | -1.11° C | 75% | 1013.4 hPa | 0 mm | - | - | - |
| 1777439499 | -1.11° C | 76% | 1013.3 hPa | 0 mm | - | - | - |
| 1777438899 | -0.56° C | 76% | 1013.3 hPa | 0 mm | - | - | - |
| 1777438299 | -1.11° C | 77% | 1013.2 hPa | 0 mm | - | - | - |
| 1777437699 | -1.11° C | 76% | 1013.4 hPa | 0 mm | - | - | - |
| 1777437099 | -1.11° C | 72% | 1013.4 hPa | 0 mm | - | - | - |
| 1777436499 | -1.11° C | 68% | 1013.3 hPa | 0 mm | - | - | - |
* Rain latest hour (hover to see other rain measurements)
** Current wind speed in m/s (hover to see current wind gust speed)